EW1970 Weather Reports


Display with metric or nautical units.
time (UTC)temp
F
wind
direction
speed
MPH
gust
MPH
rain 1hr
in
rain 24hr
in
rain mn
in
humidity
%
barometer
mb
20260508151507 66 337 0.0 2.0 0.00 0.00 0.00 83 1014.3
20260508150018 65 205 0.0 2.0 0.00 0.00 0.00 83 1014.2
20260508144511 65 97 0.0 2.0 0.00 0.00 0.00 83 1014.1
20260508143018 65 21 0.0 2.0 0.00 0.00 0.00 81 1014.2
20260508141512 64 104 0.0 3.0 0.00 0.00 0.00 84 1014.2
20260508140012 63 144 0.0 2.0 0.00 0.00 0.00 84 1014.3
20260508134514 62 150 0.0 2.0 0.00 0.00 0.00 84 1014.4
20260508133015 62 79 0.0 2.0 0.00 0.00 0.00 84 1014.2
20260508131512 62 78 0.0 0.0 0.00 0.00 0.00 85 1014.7
20260508130011 61 78 0.0 0.0 0.00 0.00 0.00 84 1014.5
20260508124514 61 78 0.0 2.0 0.00 0.00 0.00 83 1014.4
20260508123016 61 111 0.0 0.0 0.00 0.00 0.00 84 1014.6
20260508121516 61 111 0.0 0.0 0.00 0.00 0.00 84 1014.7
20260508120017 61 111 0.0 0.0 0.00 0.00 0.00 84 1014.7
20260508114517 61 327 0.0 2.0 0.00 0.00 0.00 84 1015.2
20260508113019 61 242 0.0 1.0 0.00 0.00 0.00 84 1015.4
20260508111520 61 49 0.0 2.0 0.00 0.00 0.00 84 1015.2
20260508110020 61 58 0.0 2.0 0.00 0.00 0.00 84 1014.8
20260508104522 61 306 0.0 2.0 0.00 0.00 0.00 84 1014.8
20260508103020 60 287 0.0 2.0 0.00 0.00 0.00 85 1014.6
20260508101521 60 326 0.0 2.0 0.00 0.00 0.00 85 1015.3
20260508100024 61 266 0.0 2.0 0.00 0.00 0.00 84 1015.4
20260508094521 61 345 0.0 2.0 0.00 0.00 0.00 84 1015.5
20260508093013 61 9 0.0 2.0 0.00 0.00 0.00 83 1015.4
20260508091521 61 37 0.0 1.0 0.00 0.00 0.00 83 1015.1
20260508090024 61 78 0.0 0.0 0.00 0.00 0.00 82 1014.9
20260508084524 61 78 0.0 2.0 0.00 0.00 0.00 83 1014.7
20260508083003 61 25 0.0 0.0 0.00 0.00 0.00 83 1014.9
20260508081512 60 25 0.0 0.0 0.00 0.00 0.00 83 1015.1
20260508080018 60 25 0.0 2.0 0.00 0.00 0.00 83 1014.8
20260508074523 60 112 0.0 0.0 0.00 0.00 0.00 85 1014.6
20260508073023 60 112 0.0 2.0 0.00 0.00 0.00 88 1014.9
20260508071517 59 316 0.0 0.0 0.00 0.00 0.00 89 1014.7
20260508070014 58 316 0.0 0.0 0.00 0.00 0.00 89 1015.5
20260508064520 58 316 0.0 0.0 0.00 0.00 0.00 89 1015.4
20260508063025 58 316 0.0 0.0 0.00 0.00 0.00 89 1015.8
20260508061529 58 316 0.0 2.0 0.00 0.00 0.00 89 1016.2
20260508060013 58 316 0.0 0.0 0.00 0.00 0.00 88 1015.6
20260508054521 59 316 0.0 0.0 0.00 0.00 0.00 87 1015.8
20260508053022 59 316 0.0 1.0 0.00 0.00 0.00 87 1015.9
20260508051530 58 321 0.0 2.0 0.00 0.00 0.00 87 1015.5
20260508050028 59 279 0.0 0.0 0.00 0.00 0.00 87 1015.8
20260508044516 59 306 0.0 2.0 0.00 0.00 0.00 86 1016.4
20260508043021 59 304 0.0 0.0 0.00 0.00 0.00 86 1015.3
20260508041525 59 304 0.0 2.0 0.00 0.00 0.00 86 1016.2
20260508040025 59 298 0.0 0.0 0.00 0.00 0.00 85 1016.0
20260508034535 59 298 0.0 0.0 0.00 0.00 0.00 84 1016.3
20260508033017 60 298 0.0 1.0 0.00 0.00 0.00 83 1016.6
20260508031521 60 82 0.0 2.0 0.00 0.00 0.00 82 1016.8
20260508030025 60 82 0.0 0.0 0.00 0.00 0.00 82 1015.7
20260508024534 61 82 0.0 1.0 0.00 0.00 0.00 80 1015.4
20260508023032 61 67 0.0 2.0 0.00 0.00 0.00 79 1015.0
20260508021521 61 62 0.0 2.0 0.00 0.00 0.00 80 1014.3
20260508020003 61 74 0.0 3.0 0.00 0.00 0.00 80 1014.6
20260508014504 61 73 0.0 2.0 0.00 0.00 0.00 78 1014.7
20260508013011 61 78 0.0 2.0 0.00 0.00 0.00 79 1014.5
20260508011504 61 99 0.0 2.0 0.00 0.00 0.00 79 1014.5
20260508010007 62 78 0.0 3.0 0.00 0.00 0.00 77 1014.9
20260508004508 62 51 0.0 2.0 0.00 0.00 0.00 79 1015.1
20260508003011 63 360 0.0 2.0 0.00 0.00 0.00 74 1015.2
20260508001514 63 334 0.0 2.0 0.00 0.00 0.00 77 1015.4
20260508000008 63 331 0.0 2.0 0.00 0.00 0.00 78 1015.9
20260507234509 63 51 0.0 2.0 0.00 0.00 0.00 77 1015.9
20260507233008 64 11 0.0 2.0 0.00 0.00 0.00 73 1016.1
20260507231524 64 93 0.0 2.0 0.00 0.00 0.00 75 1015.5
20260507230019 65 42 0.0 4.0 0.00 0.00 0.00 73 1016.1
20260507224507 65 101 0.0 4.0 0.00 0.00 0.00 74 1015.6
20260507223005 65 340 1.0 6.0 0.00 0.00 0.00 72 1016.3
20260507221514 65 100 0.0 8.0 0.00 0.00 0.00 73 1016.4
20260507220022 65 202 0.0 8.0 0.00 0.00 0.00 69 1016.4
20260507214521 66 73 1.0 5.0 0.00 0.00 0.00 70 1017.1
20260507213004 67 36 2.0 5.0 0.00 0.00 0.00 71 1017.2
20260507211511 65 169 1.0 4.0 0.00 0.00 0.00 75 1016.1
20260507210016 64 12 0.0 5.0 0.00 0.00 0.00 77 1016.8
20260507204519 64 65 0.0 4.0 0.00 0.00 0.00 74 1017.4
20260507203025 64 234 0.0 6.0 0.00 0.00 0.00 76 1017.5
20260507201507 64 49 0.0 2.0 0.00 0.00 0.00 74 1017.8
20260507200012 63 360 1.0 2.0 0.00 0.00 0.00 74 1017.5
20260507194518 63 76 0.0 5.0 0.00 0.00 0.00 74 1018.3
20260507193021 63 86 0.0 6.0 0.00 0.00 0.00 74 1018.1
20260507191529 63 67 1.0 4.0 0.00 0.00 0.00 74 1018.3
20260507190018 62 165 0.0 4.0 0.00 0.00 0.00 75 1018.4
20260507184529 62 135 1.0 6.0 0.00 0.00 0.00 75 1018.0
20260507183036 62 22 0.0 6.0 0.00 0.00 0.00 76 1018.2
20260507181524 62 340 0.0 4.0 0.00 0.00 0.00 77 1018.5
20260507180037 62 63 0.0 5.0 0.00 0.00 0.00 74 1018.7
20260507174516 63 105 2.0 5.0 0.00 0.00 0.00 75 1018.2
20260507173017 62 360 1.0 5.0 0.00 0.00 0.00 78 1018.7
20260507171521 60 78 1.0 6.0 0.00 0.00 0.00 80 1018.3
20260507170010 59 236 0.0 5.0 0.00 0.00 0.00 82 1018.2
20260507164510 59 104 1.0 9.0 0.00 0.00 0.00 82 1018.7
20260507163014 59 105 1.0 6.0 0.00 0.00 0.00 82 1019.4
20260507161533 58 327 2.0 6.0 0.00 0.00 0.00 81 1020.6
20260507160010 58 60 0.0 8.0 0.00 0.00 0.00 81 1019.8
20260507154508 58 59 0.0 8.0 0.00 0.00 0.00 81 1019.8
20260507153015 58 73 1.0 4.0 0.00 0.00 0.00 82 1019.3